SL-14 DEB

Satellite information

Favourite Embed

Satellite Type and Status

DEBRISIN ORBIT

Key statistics

Satellite SL-14 DEB at a glance.

Uptime

12541

Days in orbit

Revolutions

≈ 13.2

Per day

Orbit

LEO

Low Earth Orbit

Inclination

82.5

Latest

Satellite identification and parameters

Extended collection of information and parameters for SL-14 DEB.

Object identification

Identified? True

Debris? True

Object name: SL-14 DEB

International designator: 1991-056BM

Object number (NORAD): 45323

Object ID (CCSDS): 45323

Country: COMMONWEALTH OF INDEPENDENT STATES (CIS)

Current information (Y/N): Y

RCS size: SMALL

Orbital parameters

Period: 109.031 minutes

Inclination: 82.5289 deg

SMA: 7560.079 km

Apoapsis: 1183.038 km

Periapsis: 1180.849 km

RAAN: 259.8474 deg

Eccentricy: 0.0001448

Argument of periapsis: 23.4397 deg

Mean anomaly: 336.6793 deg

Mean motion: 13.20727695 rev/day

Mean motion (dot): 0.00000948 rev/day2

B* drag term: 0.0023020543 1/REarth

Two-line elements (TLE)

Creation date: Dec. 13, 2025, 5:47 p.m.

Reference frame: TEME

Reference center: EARTH

Epoch: Dec. 13, 2025, 3:30 a.m. UTC

TLE line 0: 0 SL-14 DEB

TLE line 1: 1 45323U 91056BM 25347.14643304 .00000948 00000-0 23021-2 0 9995

TLE line 2: 2 45323 82.5289 259.8474 0001448 23.4397 336.6793 13.20727695278834

Live tracking on map

Real-time ground track for satellite SL-14 DEB.

In-orbit conjunctions

A list of the most updated potential collisions computed for object SL-14 DEB.

Target Orbit TCA Probability of collision Miss distance Type
OSCAR 30 SSO 2025-01-01 10:07:25 0.0006678212 78.0 (m) PAYLOAD

Associated space launch

Third generation meteorological satellite

SL-14 DEB was lifted into orbit during the mission ‘Tsiklon-3 | Meteor-3 5’, on board a Tsiklon-3 space rocket.

The launch took place on Aug. 15, 1991, 9:15 a.m. from 32/2.

For more information about the launch, click the button.

Launch to space Tsiklon-3 | Meteor-3 5
Tsiklon-3 | Meteor-3 5

Agency: N/A

Status: Launch Successful

Launch date: Aug. 15, 1991, 9:15 a.m. UTC

Rocket: Tsiklon-3

Launch pad: 32/2

Location: Plesetsk Cosmodrome, Russian Federation

...

Latest news about this satellite

There are no fresh news available about this satellite. Check back as we update our databases every day.


Newsletter sign-up

Weekly statistics, charts and insights to help you stay on top of the space industry.